Wilkerson Pass, CO

10:41 AM MDT on April 25, 2018 (GMT -0600)
Wilkerson Pass

Weather History for K4BM - January, 2014

Change the Weather History Date:

Monday, January 6, 2014

  Actual Average (KAFF) Record (KAFF)
Temperature  
Mean Temperature 9 °F -  
Max Temperature 23 °F 42 °F 64 °F (2006)
Min Temperature -5 °F 20 °F -12 °F (2014)
Degree Days  
Heating Degree Days 56    
Moisture  
Dew Point -1 °F    
Average Humidity 54    
Maximum Humidity 71    
Minimum Humidity 46    
Precipitation  
Precipitation 0.00 in - - ()
Sea Level Pressure  
Sea Level Pressure 30.08 in    
Wind  
Wind Speed 15 mph (WNW)    
Max Wind Speed 26 mph    
Max Gust Speed 54 mph    
Visibility 8 miles    
Events Snow    
Averages and records for this station are not official NWS values.
T = Trace of Precipitation, MM = Missing Value Source: NWS Daily Summary

Daily Weather History Graph

Daily Weather History Graph

Search for Another Location

Airport or City:

Astronomy

Jan. 06, 2014 Rise Set
Actual Time 7:21 AM MST 4:54 PM MST
Civil Twilight 6:51 AM MST 5:24 PM MST
Nautical Twilight 6:18 AM MST 5:57 PM MST
Astronomical Twilight 5:46 AM MST 6:30 PM MST
Moon 10:41 AM MST (1/6) 11:27 PM MST (1/6)
Length of Visible Light 10h 32m
Length of Day
9h 33m
Waxing Crescent, 35% of the Moon is Illuminated
Jan 6
Waxing Crescent
Jan 7
First Quarter
Jan 15
Full
Jan 23
Last Quarter
Jan 30
New

Hourly Weather History & Observations

Time (MST) Temp. Windchill Dew Point Humidity Pressure Visibility Wind Dir Wind Speed Gust Speed Precip Events Conditions
12:00 AM -5.8 °F -26.0 °F -13.0 °F 71% 29.88 in 7.0 mi WNW 13.8 mph - N/A   Clear
12:20 AM -4.0 °F -23.7 °F -13.0 °F 65% 29.89 in 10.0 mi NW 13.8 mph 23.0 mph N/A   Clear
12:40 AM -4.0 °F -23.7 °F -13.0 °F 65% 29.89 in 10.0 mi WNW 13.8 mph 29.9 mph N/A   Clear
12:59 AM -4.0 °F -23.7 °F -13.0 °F 65% 29.89 in 7.0 mi NW 13.8 mph 26.5 mph N/A   Clear
1:20 AM -4.0 °F - -13.0 °F 65% 29.87 in 3.0 mi North - - N/A   Haze
1:40 AM -0.4 °F - -13.0 °F 55% 29.89 in 3.0 mi North - - N/A Snow Light Snow
2:00 AM -0.4 °F - -13.0 °F 55% 29.91 in 5.0 mi North - - N/A   Haze
2:19 AM -2.2 °F - -13.0 °F 60% 29.91 in 10.0 mi North - - N/A   Clear
2:39 AM -2.2 °F - -13.0 °F 60% 29.91 in 5.0 mi North - - N/A   Haze
2:59 AM -0.4 °F - -13.0 °F 55% 29.91 in 3.0 mi North - - N/A Snow Light Snow
3:20 AM -0.4 °F -21.2 °F -13.0 °F 55% 29.93 in 3.0 mi NW 17.3 mph - N/A   Haze
3:40 AM 1.4 °F -19.4 °F -13.0 °F 51% 29.93 in 2.5 mi NW 18.4 mph - N/A Snow Light Snow
3:59 AM 1.4 °F - -13.0 °F 51% 29.91 in 2.5 mi North - - N/A Snow Light Snow
4:20 AM 1.4 °F - -13.0 °F 51% 29.92 in 2.5 mi North - - N/A Snow Light Snow
4:40 AM 3.2 °F -15.9 °F -13.0 °F 47% 29.93 in 3.0 mi NW 16.1 mph - N/A Snow Light Snow
5:00 AM 3.2 °F -18.1 °F -13.0 °F 47% 29.95 in 3.0 mi NNW 20.7 mph 39.1 mph N/A Snow Light Snow
5:20 AM 3.2 °F -15.9 °F -11.2 °F 51% 29.96 in 5.0 mi NNW 16.1 mph 54.1 mph N/A   Haze
5:40 AM 3.2 °F -17.1 °F -9.4 °F 56% 29.96 in 7.0 mi NNW 18.4 mph 40.3 mph N/A   Clear
6:00 AM 5.0 °F -15.2 °F -7.6 °F 56% 29.95 in 5.0 mi NNW 19.6 mph 44.9 mph N/A   Haze
6:20 AM 5.0 °F -17.1 °F -7.6 °F 56% 29.96 in 4.0 mi NNW 24.2 mph 44.9 mph N/A Snow Light Snow
6:39 AM 6.8 °F -13.8 °F -7.6 °F 52% 29.98 in 4.0 mi NNW 21.9 mph 43.7 mph N/A Snow Light Snow
6:59 AM 6.8 °F -15.5 °F -5.8 °F 56% 29.99 in 4.0 mi NNW 26.5 mph 47.2 mph N/A   Haze
7:20 AM 8.6 °F -12.3 °F -5.8 °F 52% 30.00 in 1.8 mi NNW 24.2 mph 49.5 mph N/A Snow Light Snow
7:40 AM 8.6 °F -11.4 °F -4.0 °F 57% 30.02 in 4.0 mi NNW 21.9 mph 52.9 mph N/A   Haze
8:00 AM 10.4 °F -9.9 °F -4.0 °F 52% 30.03 in 4.0 mi NNW 24.2 mph 49.5 mph N/A   Haze
8:20 AM 12.2 °F -4.8 °F -0.4 °F 57% 30.06 in 5.0 mi NNW 17.3 mph 39.1 mph N/A   Haze
8:39 AM 12.2 °F -6.3 °F -2.2 °F 53% 30.06 in 7.0 mi NW 20.7 mph 42.6 mph N/A   Clear
9:00 AM 12.2 °F -6.3 °F -0.4 °F 57% 30.07 in 7.0 mi NW 20.7 mph 40.3 mph N/A   Clear
9:20 AM 14.0 °F -2.0 °F -0.4 °F 53% 30.09 in 10.0 mi NW 16.1 mph 41.4 mph N/A   Clear
9:40 AM 15.8 °F 0.9 °F 1.4 °F 53% 30.12 in 10.0 mi NW 15.0 mph 29.9 mph N/A   Clear
10:00 AM 17.6 °F 3.2 °F 1.4 °F 49% 30.13 in 10.0 mi WNW 15.0 mph 25.3 mph N/A   Clear
10:20 AM 17.6 °F 4.3 °F 1.4 °F 49% 30.13 in 10.0 mi WNW 12.7 mph 31.1 mph N/A   Clear
10:40 AM 19.4 °F 11.5 °F 1.4 °F 46% 30.13 in 10.0 mi West 5.8 mph 24.2 mph N/A   Clear
11:00 AM 21.2 °F 12.6 °F 3.2 °F 46% 30.14 in 10.0 mi West 6.9 mph 18.4 mph N/A   Clear
11:20 AM 19.4 °F 8.6 °F 5.0 °F 54% 30.13 in 10.0 mi SW 9.2 mph 18.4 mph N/A   Clear
11:40 AM 19.4 °F 9.5 °F 3.2 °F 49% 30.13 in 10.0 mi SW 8.1 mph - N/A   Clear
12:00 PM 17.6 °F 10.7 °F 1.4 °F 49% 30.13 in 10.0 mi WSW 4.6 mph - N/A   Clear
12:20 PM 21.2 °F - 3.2 °F 46% 30.14 in 10.0 mi Calm Calm - N/A   Clear
12:39 PM 21.2 °F - 3.2 °F 46% 30.14 in 10.0 mi Calm Calm - N/A   Clear
1:00 PM 23.0 °F 14.7 °F 5.0 °F 46% 30.14 in 10.0 mi West 6.9 mph 18.4 mph N/A   Clear
1:20 PM 23.0 °F 15.8 °F 5.0 °F 46% 30.14 in 10.0 mi West 5.8 mph - N/A   Scattered Clouds
1:40 PM 23.0 °F 15.8 °F 5.0 °F 46% 30.15 in 10.0 mi NW 5.8 mph - N/A   Scattered Clouds
2:00 PM 23.0 °F 17.0 °F 6.8 °F 50% 30.16 in 10.0 mi WSW 4.6 mph - N/A   Mostly Cloudy
2:20 PM 21.2 °F 13.6 °F 5.0 °F 50% 30.17 in 10.0 mi NW 5.8 mph 9.2 mph N/A   Scattered Clouds
2:40 PM 21.2 °F 11.7 °F 6.8 °F 54% 30.17 in 10.0 mi WNW 8.1 mph 21.9 mph N/A   Clear
3:00 PM 23.0 °F 10.6 °F 8.6 °F 54% 30.15 in 10.0 mi WNW 13.8 mph 27.6 mph N/A   Clear
3:20 PM 23.0 °F 9.6 °F 8.6 °F 54% 30.15 in 10.0 mi WNW 16.1 mph 29.9 mph N/A   Clear
3:39 PM 23.0 °F 9.2 °F 8.6 °F 54% 30.15 in 10.0 mi WNW 17.3 mph 31.1 mph N/A   Clear
4:00 PM 21.2 °F 7.8 °F 8.6 °F 58% 30.16 in 10.0 mi WNW 15.0 mph 28.8 mph N/A   Clear
4:20 PM 21.2 °F 7.3 °F 8.6 °F 58% 30.17 in 10.0 mi NW 16.1 mph 29.9 mph N/A   Clear
4:40 PM 21.2 °F 11.7 °F 8.6 °F 58% 30.18 in 10.0 mi West 8.1 mph - N/A   Clear
5:00 PM 19.4 °F 7.9 °F 6.8 °F 58% 30.19 in 10.0 mi West 10.4 mph 20.7 mph N/A   Clear
5:19 PM 19.4 °F 10.4 °F 6.8 °F 58% 30.18 in 10.0 mi West 6.9 mph 24.2 mph N/A   Clear
5:40 PM 19.4 °F 9.5 °F 6.8 °F 58% 30.19 in 10.0 mi West 8.1 mph - N/A   Clear
6:00 PM 19.4 °F 9.5 °F 6.8 °F 58% 30.19 in 10.0 mi WNW 8.1 mph 16.1 mph N/A   Clear
6:20 PM 19.4 °F 7.2 °F 6.8 °F 58% 30.19 in 10.0 mi WNW 11.5 mph 21.9 mph N/A   Clear
6:40 PM 19.4 °F 9.5 °F 6.8 °F 58% 30.20 in 10.0 mi WNW 8.1 mph 18.4 mph N/A   Clear
7:00 PM 19.4 °F 8.6 °F 6.8 °F 58% 30.19 in 10.0 mi West 9.2 mph 16.1 mph N/A   Clear
7:19 PM 21.2 °F 7.3 °F 6.8 °F 54% 30.19 in 10.0 mi WNW 16.1 mph 28.8 mph N/A   Clear
7:40 PM 21.2 °F 6.8 °F 6.8 °F 54% 30.19 in 10.0 mi WNW 17.3 mph 27.6 mph N/A   Clear
8:00 PM 21.2 °F 7.8 °F 5.0 °F 50% 30.21 in 10.0 mi WNW 15.0 mph 32.2 mph N/A   Clear
8:20 PM 19.4 °F 6.0 °F 5.0 °F 54% 30.21 in 10.0 mi WNW 13.8 mph 25.3 mph N/A   Clear
8:40 PM 21.2 °F 7.8 °F 6.8 °F 54% 30.20 in 10.0 mi WNW 15.0 mph 24.2 mph N/A   Clear
9:00 PM 21.2 °F 6.8 °F 6.8 °F 54% 30.20 in 10.0 mi WNW 17.3 mph 28.8 mph N/A   Clear
9:20 PM 21.2 °F 6.0 °F 6.8 °F 54% 30.19 in 10.0 mi NW 19.6 mph - N/A   Clear
9:40 PM 23.0 °F 9.6 °F 5.0 °F 46% 30.21 in 10.0 mi NW 16.1 mph 33.4 mph N/A   Clear
10:00 PM 21.2 °F 6.8 °F 5.0 °F 50% 30.21 in 10.0 mi WNW 17.3 mph 27.6 mph N/A   Clear
10:20 PM 21.2 °F 6.8 °F 5.0 °F 50% 30.21 in 10.0 mi WNW 17.3 mph 31.1 mph N/A   Clear
10:40 PM 21.2 °F 5.6 °F 5.0 °F 50% 30.21 in 10.0 mi WNW 20.7 mph 33.4 mph N/A   Clear
11:00 PM 21.2 °F 6.0 °F 3.2 °F 46% 30.21 in 10.0 mi NW 19.6 mph 25.3 mph N/A   Clear
11:20 PM 21.2 °F 8.3 °F 3.2 °F 46% 30.21 in 10.0 mi NW 13.8 mph 29.9 mph N/A   Clear
11:40 PM 21.2 °F 6.8 °F 3.2 °F 46% 30.21 in 10.0 mi NW 17.3 mph 28.8 mph N/A   Clear